Miscellaneous Local Product
Issued by NWS Hastings, NE

Home | Current Version | Previous Version | Graphics & Text | Print | Product List | Glossary On
Versions: 1 2 3 4 5 6 7 8 9 10 11 12 13 14 15 16 17 18 19 20 21 22 23 24 25 26 27 28 29 30 31 32 33 34 35 36 37 38 39 40 41 42 43 44 45 46 47 48 49 50
000
AXUS43 KGID 040302
MISGRI

GID CWA HOURLY WEATHER ROUNDUP
NATIONAL WEATHER SERVICE HASTINGS NE
1000 PM CDT FRI JUL 03 2015

NOTE: "FAIR" INDICATES FEW OR NO CLOUDS BELOW 12,000 FEET WITH NO
SIGNIFICANT WEATHER AND/OR OBSTRUCTIONS TO VISIBILITY.

...SOUTH CENTRAL NEBRASKA...

CITY           SKY/WX    TMP DP  RH WIND       PRES   REMARKS
GRAND ISLAND   CLEAR     68  63  84 SE6       30.00R
HASTINGS       CLEAR     70  63  78 SE6       30.00R
KEARNEY        CLEAR     68  61  77 SE6       30.00R
ORD            CLEAR     72  61  68 SE8       29.97R
YORK           PTCLDY    68  66  94 CALM      29.99S
AURORA         CLEAR     67  65  93 SE3       30.00R
LEXINGTON      CLEAR     71  64  80 SE8       30.00R
HOLDREGE       CLEAR     69  62  78 SE6       30.00R
HEBRON         CLEAR     69  64  82 CALM      29.99R

...NEBRASKA PANHANDLE...

CITY           SKY/WX    TMP DP  RH WIND       PRES   REMARKS
CHADRON        CLEAR     71  61  70 SE7       29.96R
ALLIANCE       PTCLDY    66  58  75 SE7       30.02R
SCOTTSBLUFF    CLOUDY    76  58  53 SE10      30.01R
SIDNEY         PTCLDY    70  57  63 SE8       30.06R

...WESTERN AND NORTH CENTRAL NEBRASKA...

CITY           SKY/WX    TMP DP  RH WIND       PRES   REMARKS
VALENTINE      CLEAR     70  60  70 SE7       29.96S
AINSWORTH      CLEAR     69  63  80 E7        29.97S
ONEILL         CLEAR     70  65  84 E8        29.98S
BROKEN BOW     CLEAR     69  62  78 SE6       29.99R
IMPERIAL       CLEAR     70  60  70 SE8       30.02R
NORTH PLATTE   CLEAR     68  63  84 E6        30.00R
MCCOOK         CLEAR     71  61  70 SE6       30.00R

...EASTERN NEBRASKA...

CITY           SKY/WX    TMP DP  RH WIND       PRES   REMARKS
NORFOLK        CLEAR     66  63  90 S6        29.98R
SO SIOUX CITY  CLEAR     68  60  75 E6        29.96R
TEKAMAH        CLEAR     65  58  78 CALM      29.96R
COLUMBUS       CLEAR     64  57  77 CALM      29.96R
ALBION         CLEAR     67  62  83 SE5       29.99R
OMAHA EPPLEY   PTCLDY    69  58  67 CALM      29.97R
OFFUTT AFB     CLEAR     62  58  88 CALM      29.96R
MILLARD        CLEAR     67  58  73 CALM      29.97R
LINCOLN        PTCLDY    69  61  75 CALM      29.98R
NEBRASKA CITY  CLEAR     70  53  54 CALM      29.97S
BEATRICE       CLEAR     70  60  69 CALM      29.97S
FALLS CITY     CLEAR     69  61  75 N3        29.96R

...NORTHERN KANSAS...

CITY           SKY/WX    TMP DP  RH WIND       PRES   REMARKS
GOODLAND       CLOUDY    74  59  59 SE14      30.04R
HILL CITY      CLEAR     70  57  63 NE5       30.00R
NORTON         CLEAR     68  55  64 E3        30.00R
PHILLIPSBURG   CLEAR     75  61  60 NE6       29.99R
SMITH CENTER   CLEAR     68  61  77 E6        30.00R
HAYS           CLEAR     72  57  60 E7        29.99R
RUSSELL        CLEAR     71  63  75 E7        29.97R
CONCORDIA      CLEAR     68  63  84 CALM      29.98R
SALINA         CLEAR     77  62  59 E6        29.96R
TOPEKA         CLEAR     69  62  78 CALM      29.95R



USA.gov is the U.S. government's official web portal to all federal, state and local government web resources and services.